Preview of NWS' New Version of Forecast
This preview is not operational and should not be used for support decisions.

Regional Weather Roundup (RWR)

Issued by National Weather Service (NWS)

                            
000
ASUS42 KTBW 171216
RWRFL 
FLORIDA REGIONAL WEATHER ROUNDUP
NATIONAL WEATHER SERVICE TAMPA BAY RUSKIN FL
800 AM EDT FRI MAY 17 2019

NOTE: "FAIR" INDICATES FEW OR NO CLOUDS BELOW 12,000 FEET WITH NO
SIGNIFICANT WEATHER AND/OR OBSTRUCTIONS TO VISIBILITY.

FLZ001>010-012>015-112-114-115-171300-
PANHANDLE FLORIDA
  
CITY           SKY/WX    TMP DP  RH WIND       PRES   REMARKS
PENSACOLA      FAIR      71  69  93 N5        30.02R                  
PENSACOLA NAS  FAIR      68  68 100 CALM      30.01R                  
MILTON NAS     FAIR      66  64  93 N3        30.03R                  
CRESTVIEW      FAIR      63  59  87 CALM      30.04R                  
DUKE FIELD     FAIR      64  64  99 CALM      30.02R                  
VALPARAISO     FAIR      68  64  87 N3        30.02R                  
MARY ESTHER    SUNNY     67  65  93 CALM      30.01R                  
PANAMA CITY    FAIR      68  65  90 CALM      30.02R                  
TYNDALL AFB    SUNNY     69  68  94 N3        30.02R                  
APALACHICOLA   FAIR      66  63  90 CALM      30.02R                  

STATION/POSITION SKY/WX   TEMP    WIND        PRES    WAVE   SWELL
                          AIR SEA DIR/SP/G            HT/PER HT/PER
                          (F)     (DEG/KT/KT) (MB)    (FT/S) (FT/S)
30.1N   87.6W                                   N/A     1
29.2N   88.2W                     120/  8/ 10 1016.6R   1/ 8   2/ 8
PANAMA CITY BEAC           71 77   40/  3/  4 1017.0R
TOWER C          NOT AVBL

$$
FLZ011-016>038-118-127-128-134-139-239-171300-
NORTH FLORIDA
  
CITY           SKY/WX    TMP DP  RH WIND       PRES   REMARKS
TALLAHASSEE    PTSUNNY   69  62  78 E8        30.04R                  
PERRY          FAIR      67  66  97 CALM      30.05R                  
LIVE OAK       SUNNY     68  66  94 CALM      30.05R                  
CROSS CITY     FAIR      69  65  86 SE5       30.04R                  
LAKE CITY      FAIR      68  63  83 CALM      30.05R                  
GAINESVILLE    FAIR      71  64  78 S5        30.07R                  
WILLISTON      FAIR      67  64  90 S5        30.05R                  
PALATKA        FAIR     N/A N/A N/A CALM      30.05R                  
MAYPORT NAS    FAIR      70  64  81 SW8       30.05R                  
JACKSONVILLE   FAIR      70  63  78 SW6       30.05R                  
JAX NAS        FAIR      72  61  68 S6        30.06R                  
JAX CECIL      SUNNY     66  63  88 CALM      30.05R                  
FERNANDINA BEA FAIR      72  64  77 SW10      30.05R                  

STATION/POSITION SKY/WX   TEMP    WIND        PRES    WAVE   SWELL
                          AIR SEA DIR/SP/G            HT/PER HT/PER
                          (F)     (DEG/KT/KT) (MB)    (FT/S) (FT/S)
SHELL POINT      NOT AVBL
KEATON BEACH               70      90/  4/  4 1017.1R
CEDAR KEY                  76     180/ 10/ 11 1017.2R
FERNANDINA                 75 78  210/  5/  8 1018.0R
30.7N   81.3W                 77                N/A     3/ 4   2/13
MAYPORT                    71 78  220/  5/  8 1017.6R
31.4N   80.9W              75 75  220/ 16/ 17 1016.6R   4/ 5   2/15
ST AUGUSTINE               73 78  220/  5/  7 1017.9R

$$
FLZ040-043>046-052-053-057-058-063-144-171300-
INTERIOR CENTRAL FLORIDA
  
CITY           SKY/WX    TMP DP  RH WIND       PRES   REMARKS
OCALA          FAIR      68  64  87 S3        30.05S                  
LEESBURG       FAIR      73  63  70 SE7       30.06R                  
SANFORD        FAIR      70  65  84 CALM      30.05R                  
ORLANDO EXEC   FAIR      70  64  81 SE3       30.06R                  
ORLANDO INTL   FAIR      67  64  90 SE3       30.06R                  
KISSIMMEE      FAIR      71  66  84 CALM      30.07R                  
WINTER HAVEN   FAIR      72  63  73 SE6       30.06R                  
LAKELAND       SUNNY     70  63  78 CALM      30.06R                  
BARTOW         SUNNY     64  63  94 E3        30.04R                  
SEBRING        FAIR      66  63  90 CALM      30.06R                  
OKEECHOBEE     FAIR      66  63  88 CALM      30.04R                  

$$
FLZ041-047-054-059-064-141-147-171300-
EAST CENTRAL FLORIDA
  
CITY           SKY/WX    TMP DP  RH WIND       PRES   REMARKS
ORMOND BEACH   MOSUNNY   66  66 100 CALM      30.05R                  
DAYTONA BEACH  FAIR      69  67  93 CALM      30.05R                  
DELAND         FAIR      66  63  88 CALM      30.05S                  
NEW SMYRNA BEA MOSUNNY   68  63  83 W5        30.06R                  
JFK SPACE CTR  FAIR      69  67  92 CALM      30.05R                  
TITUSVILLE     MOSUNNY   70  68  94 CALM      30.05S                  
CAPE CANAVERAL FAIR      72  61  68 CALM      30.04R                  
PATRICK AFB    FAIR      75  68  80 W3        30.05R                  
MELBOURNE      FAIR      71  66  84 CALM      30.05R                  
VERO BEACH     FAIR      70  66  87 CALM      30.05R                  
FT PIERCE      FAIR      70  65  84 CALM      30.04R                  
STUART         MOSUNNY   73  66  78 CALM      30.05R                  

STATION/POSITION SKY/WX   TEMP    WIND        PRES    WAVE   SWELL
                          AIR SEA DIR/SP/G            HT/PER HT/PER
                          (F)     (DEG/KT/KT) (MB)    (FT/S) (FT/S)
28.5N   80.2W              76     130/  6/  8 1018.0
28.9N   78.5W              75 77  130/  4/  6 1018.3
TRIDENT PIER               75 79  280/  1/  3 1018.8R
28.4N   80.5W                 77                N/A     2/15   2/15
27.5N   80.2W                 78                N/A     3/11   2/11

$$
FLZ050-056-061-142-242-148-248-149-249-151-251-155-255-
160-260-171300-
WEST CENTRAL FLORIDA
  
CITY           SKY/WX    TMP DP  RH WIND       PRES   REMARKS
CRYSTAL RIVER  FAIR     N/A N/A N/A CALM      30.05R                  
INVERNESS      FAIR      66  66 100 CALM      30.06R                  
BROOKSVILLE    FAIR      67  64  90 CALM      30.06R                  
CLEARWATER AIR FAIR      73  63  68 SE7       30.04R                  
ST PETE CLEARW FAIR      70  70 100 SE10      30.04R                  
TAMPA INTL     FAIR      70  61  73 SE6       30.05R                  
TAMPA EXEC     FAIR      68  63  83 CALM      30.06R                  
PLANT CITY     FAIR      72  64  78 SE5       30.07R                  
MACDILL AFB    FAIR      72  64  77 SE5       30.04R                  
PETER O KNIGHT CLOUDY    72  64  78 E3        30.05R                  
ST PETERSBURG  FAIR      74  65  73 SE9       30.02R                  
SARASOTA       FAIR      70  64  81 E7        30.02R                  
VENICE         FAIR      70  66  88 E8        30.04R                  

STATION/POSITION SKY/WX   TEMP    WIND        PRES    WAVE   SWELL
                          AIR SEA DIR/SP/G            HT/PER HT/PER
                          (F)     (DEG/KT/KT) (MB)    (FT/S) (FT/S)
27.3N   84.2W                 77                N/A     2/ 4
CLEARWATER BEACH           74 81  110/  6/ 10 1017.1R
MIDDLE TAMPA BAY           72     140/  9/ 11 1017.1R
VENICE                     70 81   80/  8/  9 1017.0R

$$
FLZ066-069-070-075>078-162-262-165-265-171300-
SOUTHWEST FLORIDA AND KEYS
  
CITY           SKY/WX    TMP DP  RH WIND       PRES   REMARKS
PUNTA GORDA    FAIR      68  64  87 E5        30.05R                  
FT MYERS       FAIR      71  66  84 E7        30.03R                  
SOUTHWEST INTL FAIR      70  65  84 E6        30.03R                  
NAPLES         FAIR      71  66  84 E8        30.02R                  
MARCO ISLAND   FAIR      70  66  87 NE6       30.03R                  
IMMOKALEE      FAIR      70  66  88 NE3       30.02R                  
MARATHON       FAIR      83  70  64 E10       29.99R                  
KEY WEST NAS   FAIR      82  71  69 E10       29.99R                  
KEY WEST INTL  FAIR      80  71  74 NE10      29.99R                  

STATION/POSITION SKY/WX   TEMP    WIND        PRES    WAVE   SWELL
                          AIR SEA DIR/SP/G            HT/PER HT/PER
                          (F)     (DEG/KT/KT) (MB)    (FT/S) (FT/S)
NAPLES                     71 81              1016.5R
DRY TORTUGAS               80      90/ 15/ 16 1015.3R
SAND KEY                   80                 1015.2R
SOMBRERO KEY               80                 1014.9R

$$
FLZ067-068-071>074-168-172>174-171300-
SOUTHEAST FLORIDA 
  
CITY           SKY/WX    TMP DP  RH WIND       PRES   REMARKS
W PALM BEACH   FAIR      78  65  63 NE5       30.04R                  
FT LAUDER-EXEC FAIR      77  66  68 NE3       30.02R                  
FT LAUDERDALE  FAIR      78  66  66 NE7       30.01R                  
POMPANO BEACH  FAIR      78  64  61 E7        30.02R                  
PEMBROKE PINES FAIR      72  67  84 CALM      30.03R                  
OPA LOCKA      FAIR      76  67  73 NE6       30.02R                  
MIAMI          FAIR      78  67  68 NE5       30.02R                  
WEST KENDALL   FAIR      76  67  73 NE5       30.01R                  
HOMESTEAD      FAIR      76  68  77 N6        30.00R                  

STATION/POSITION SKY/WX   TEMP    WIND        PRES    WAVE   SWELL
                          AIR SEA DIR/SP/G            HT/PER HT/PER
                          (F)     (DEG/KT/KT) (MB)    (FT/S) (FT/S)
VIRGINIA KEY               80 81   40/  8/ 10 1015.6R
LAKE WORTH                 77 81              1017.7R
SETTLEMENT POINT           76      70/  9/ 10 1017.2R

$$